Regional Weather Roundup
Issued by NWS

Home | Current Version | Previous Version | Text Only | Print | Product List | Glossary Off
Versions: 1 2 3 4 5 6 7 8 9 10 11 12 13 14 15 16 17 18 19 20 21 22 23 24 25 26 27 28 29 30 31 32 33 34 35 36 37 38 39 40 41 42 43 44 45 46 47 48 49 50

000
ASUS43 KDTX 211110
RWRMI
MICHIGAN HOURLY REGIONAL WEATHER ROUNDUP
NATIONAL WEATHER SERVICE DETROIT/PONTIAC MI
600 AM EST WED FEB 21 2018

NOTE: "FAIR" INDICATES FEW OR NO CLOUDS BELOW 12,000 FEET WITH NO
SIGNIFICANT WEATHER AND/OR OBSTRUCTION TO VISIBILITY.

MIZ047>049-052>055-059>063-066>070-074>076-081>083-211200-
SOUTHEAST LOWER MICHIGAN

CITY           SKY/WX    TMP DP  RH WIND       PRES   REMARKS
ADRIAN         RAIN      40  38  93 N14G21    30.20R WCI  32
ALMA           CLOUDY    33  33  99 NW7       30.24R WCI  27
ANN ARBOR      LGT RAIN  40  38  93 NW16      30.18R WCI  31
BAD AXE        LGT SNOW  35  35  99 NW10      30.20R WCI  27
CARO           MIX PCPN  36  35  94 NW6       30.21R WCI  31
DETROIT CITY   LGT RAIN  43  40  89 NW12G24   30.15R
DETROIT        LGT RAIN  44  41  89 NW20      30.18R
FLINT          RAIN      36  35  96 NW10      30.22R WCI  28
GROSSE ILE     LGT RAIN  45  44  97 NW16      30.15R
HILLSDALE      RAIN      36  34  93 NW13G21   30.19R WCI  27
HOWELL         MIX PCPN  37  36  98 NW10      30.21R WCI  29

CITY           SKY/WX    TMP DP  RH WIND       PRES   REMARKS
JACKSON        LGT RAIN  37  36  96 NW10      30.21R FOG     WCI  30
LAMBERTVILLE   LGT RAIN  44  43  93 NW10G16   30.17R
LANSING        RAIN      34  33  96 NW8       30.24R WCI  27
LAPEER         RAIN      38  37  97 NW13      30.21R WCI  30
MASON          MIX PCPN  37  33  86 NW7       30.22R WCI  31
MONROE         RAIN      45  43  93 NW10      30.16R
MT. CLEMENS    LGT RAIN  44  44 100 NW12      30.14R
PONTIAC        RAIN      38  37  97 NW13      30.17R WCI  30
PORT HOPE        N/A     35  33  92 N6        30.19R WCI  30
PORT HURON     RAIN      43  39  87 N7        30.17R
TRI CITIES     LGT RAIN  35  32  88 NW9       30.24R FOG     WCI  28
MIDLAND        CLOUDY    35  34  96 W3        30.22R
TROY           LGT RAIN  42  40  91 NW7G17    30.19R
SAGINAW HB     MIX PCPN  36  34  93 NW9       30.22R WCI  29
$$
MIZ043>046-050>051-056>058-064>065-071>073-077>080-211200-
SOUTHWEST LOWER MICHIGAN

CITY           SKY/WX    TMP DP  RH WIND       PRES   REMARKS
BATTLE CREEK   LGT RAIN  33  31  92 NW10      30.25R WCI  25
BENTON HARBOR  CLOUDY    32  27  81 VRB6      30.32R WCI  26
BIG RAPIDS     CLOUDY    30  26  85 NW8G17    30.24R WCI  22
COLDWATER      MIX PCPN  35  35 100 NW10      30.24R WCI  27
FREMONT        CLOUDY    31  26  81 NW14G22   30.28R WCI  20
HOLLAND        CLOUDY    32  27  81 N12       30.31R WCI  23
GRAND RAPIDS   CLOUDY    32  28  85 NW16      30.28R WCI  21
IONIA          MIX PCPN  32  32  99 NW8       30.24R WCI  25
KALAMAZOO      FRZ RAIN  33  30  88 NW13      30.27R WCI  24
LUDINGTON      CLOUDY    30  26  84 NW8       30.31R WCI  22
MARSHALL       LGT RAIN  34  33  97 NW6       30.24R WCI  29
MOUNT PLEASANT CLOUDY    34  32  93 W5        30.22R WCI  30
MUSKEGON       CLOUDY    31  25  78 NW12      30.31R WCI  22
SOUTH HAVEN    CLOUDY    32  29  87 N10G17    30.31R WCI  24
$$
MIZ016>042-211200-
NORTHERN LOWER MICHIGAN

CITY           SKY/WX    TMP DP  RH WIND       PRES   REMARKS
ALPENA         FAIR      29  23  78 NW14G21   30.22R WCI  18
BEAVER ISLAND  CLOUDY    23  16  75 NW10G17   30.30R WCI  13
BELLAIRE       CLOUDY    27  24  90 NW7       30.29R WCI  19
CADILLAC       CLOUDY    27  27  97 NW10      30.23R WCI  18
CHARLEVOIX     CLOUDY    25  20  81 NW9       30.32R WCI  16
FRANKFORT      CLOUDY    29  25  84 N6        30.31R WCI  23
GAYLORD        CLOUDY    23  22  96 VRB6      30.22R WCI  16
GRAYLING       CLOUDY    26  23  87 NW14      30.22R WCI  15
HARBOR SPRINGS CLOUDY    24  18  78 NW7       30.28R WCI  16
HOUGHTON LAKE  CLOUDY    28  25  88 NW12      30.23R WCI  18
MANISTEE       CLOUDY    29  25  85 NW15      30.31R WCI  18
OSCODA         CLOUDY    32  31  95 NW8       30.20R WCI  25
PELLSTON       CLOUDY    24  19  81 NW15G22   30.28R WCI  11
ROGERS CITY    CLOUDY    26  22  82 NW12G21   30.25R WCI  16
TRAVERSE CITY  CLOUDY    29  22  75 N12       30.29R WCI  19
$$
MIZ007>008-015-211200-
EASTERN UPPER MICHIGAN

CITY           SKY/WX    TMP DP  RH WIND       PRES   REMARKS
KINROSS        FLURRIES  19  15  84 NW15      30.24R WCI   5
MACKINAC ISLAN CLOUDY    22  18  84 NW10G18   30.25R WCI  11
NEWBERRY       FLURRIES  18  14  84 NW12G17   30.27R WCI   5
S. S. MARIE    LGT SNOW  20  14  77 NW14G22   30.25R WCI   7
MUNISING         N/A     19  14  81 NW10      30.31R WCI   7
$$
MIZ004>006-011>014-085-211200-
CENTRAL UPPER MICHIGAN

CITY           SKY/WX    TMP DP  RH WIND       PRES   REMARKS
MANISTIQUE     CLOUDY    19  14  79 NW10G17   30.30R WCI   8
ESCANABA       MOCLDY    16  13  88 W3        30.33R
MENOMINEE      FAIR      19  13  77 NW7       30.36R WCI  10
SAWYER-GWINN   FLURRIES  15   9  80 NW7       30.28R WCI   5
$$
MIZ001>003-009>011-084-211200-
WESTERN UPPER MICHIGAN

CITY           SKY/WX    TMP DP  RH WIND       PRES   REMARKS
IRON MOUNTAIN  CLOUDY    15   9  76 W9        30.29R WCI   3
HOUGHTON       LGT SNOW  16   9  74 W10       30.27R WCI   4
COPPER HARBOR    N/A     17  11  77 CALM      30.29R
IRONWOOD       FLURRIES   6   2  83 W12       30.35R WCI  -9
$$

ABBREVIATIONS USED IN REMARKS
   TC - TEMPERATURE IN CELSIUS
  WCI - WIND CHILL INDEX
   HX - HEAT INDEX
  VSB - VISIBILITY




USA.gov is the U.S. government's official web portal to all federal, state and local government web resources and services.